Home > Time Zones > World Clock > Weather > Yemen > Sana > Past weeks

Flag for Yemen Weather past 2 weeks in Sana, Yemen

Now
73 °F

Passing clouds.


Feels Like: 75 °F
Forecast: 58 / 80 °F
Wind: 7 mph from East

Location: Sana'A Airport


UV Index: 10 (Very high)

Visibility: N/A


Pressure: 30.27 "Hg

Humidity: 15%

Dew point: 23 °F

Location of SanaLocation

Historic Weather in Sana

°F

Sana temperature yesterday

Maximum temperature yesterday: 82 °F (at 3:00 PM)
Minimum temperature yesterday: 55 °F (at 5:00 AM)
Average temperature yesterday: 70 °F

Past Weeks' High & Low Weather Summary

 TemperatureHumidityPressure
High84 °F (Apr 16, 3:00 PM)82% (Apr 7, 4:00 AM)30.42 "Hg (Apr 7, 4:00 AM)
Low52 °F (Apr 13, 6:00 AM)7% (Apr 18, 6:00 PM)30.18 "Hg (Apr 15, 9:00 PM)
Average68 °F28%30.32 "Hg
* Reported Apr 5 10:00 PM — Apr 20 7:00 PM, Sana, Weather by CustomWeather, © 2014

Note: Actual official high and low records may vary slightly from our data, if they occured in-between our weather recording intervals... More about our weather records

Advertising

Historic Weather Conditions — Data for Previous 24 hours

 ConditionsComfort  
Time TempWeatherWind HumidityBarometerVisibility
7:00 PM
Apr 20
75 °FPassing clouds.10 mph15%30.27 "HgN/A
6:00 PM77 °FPassing clouds.10 mph14%30.24 "HgN/A
5:00 PM79 °FPassing clouds.10 mph13%30.24 "HgN/A
4:00 PM81 °FPassing clouds.7 mph13%30.24 "HgN/A
3:00 PM81 °FPassing clouds.9 mph12%30.27 "HgN/A
2:00 PM81 °FPassing clouds.9 mph12%30.27 "HgN/A
1:00 PM81 °FPassing clouds.10 mph13%30.30 "HgN/A
12:00 PM79 °FPassing clouds.14 mph13%30.30 "HgN/A
11:00 AM79 °FPassing clouds.10 mph15%30.33 "HgN/A
10:00 AM77 °FPassing clouds.15 mph15%30.36 "HgN/A
9:00 AM73 °FPassing clouds.3 mph20%30.36 "HgN/A
8:00 AM68 °FSunny.2 mph26%30.36 "Hg10 mi
7:00 AM57 °FSunny.2 mph25%30.36 "Hg10 mi
6:00 AM55 °FPassing clouds.3 mph26%30.36 "HgN/A
5:00 AM57 °FPassing clouds.6 mph21%30.33 "HgN/A
4:00 AM55 °FPassing clouds.6 mph24%30.33 "HgN/A
3:00 AM57 °FPassing clouds.1 mph23%30.33 "HgN/A
2:00 AM57 °FPassing clouds.5 mph21%30.33 "HgN/A
1:00 AM59 °FPassing clouds.1 mph20%30.33 "HgN/A
12:00 AM66 °FPassing clouds.3 mph17%30.36 "HgN/A
11:00 PM
Apr 19
66 °FPassing clouds.3 mph17%30.39 "HgN/A
10:00 PM70 °FPassing clouds.7 mph15%30.39 "HgN/A
9:00 PM70 °FPassing clouds.6 mph15%30.36 "HgN/A
8:00 PM73 °FPassing clouds.8 mph13%30.36 "HgN/A
Weather by CustomWeather, © 2014

See weather overview